Regional Weather Roundup
Issued by NWS Jackson, KY

Home | Current Version | Previous Version | Graphics & Text | Print | Product List | Glossary On
Versions: 1 2 3 4 5 6 7 8 9 10 11 12 13 14 15 16 17 18 19 20 21 22 23 24 25 26 27 28 29 30 31 32 33 34 35 36 37 38 39 40 41 42 43 44 45 46 47 48 49 50
000
ASUS43 KJKL 271619
RWRJKL

EAST KENTUCKY HOURLY WEATHER ROUNDUP
NATIONAL WEATHER SERVICE JACKSON KY
1200 PM EDT WED AUG 27 2014

NOTE: "FAIR" INDICATES FEW OR NO CLOUDS BELOW 12,000 FEET WITH
NO SIGNIFICANT WEATHER AND/OR OBSTRUCTIONS TO VISIBILITY.

* THESE REPORTS ARE NOT UNDER NWS QUALITY CONTROL AND MAY NOT
  REPORT WEATHER SUCH AS PRECIPITATION AND FOG.

KYZ079-080-083-085-087-088-110-112-115-119-120-271700
...EASTERN KENTUCKY...

CITY           SKY/WX    TMP DP  RH WIND       PRES   REMARKS
JACKSON        SUNNY     79  63  57 VRB3      30.16S
LONDON         SUNNY     83  65  54 NE7       30.15F
SOMERSET*      SUNNY     81  64  57 NE3       30.15S
MONTICELLO*    MOSUNNY   83  68  60 NE3       30.16S
MIDDLESBORO*   SUNNY     77  66  69 CALM      30.15F
HARLAN APT*    SUNNY     79  64  61 MISG      30.16F
HAZARD APT*    SUNNY     79  63  57 CALM      30.15F
BLACK MTN*       N/A     70  59  68 NW1         N/A
PIKEVILLE APT* SUNNY     72  64  78 CALM      30.16F
BIG SANDY*     SUNNY     77  65  65 CALM      30.15F
MOREHEAD APT*  MOSUNNY   84  68  58 CALM      30.15S
ASHLAND*       SUNNY     81  66  61 CALM      30.09F
$$

KYZ035-036-041-042-044-050-067-078-099-271700
...CENTRAL KENTUCKY...

CITY           SKY/WX    TMP DP  RH WIND       PRES   REMARKS
MT STERLING*   SUNNY     82  66  57 CALM      30.15S
FLEMING/MASON* SUNNY     84  72  65 W6        30.13S
DANVILLE*      MOSUNNY   81  64  57 E3        30.15S
RICHMOND*      SUNNY     82  66  57 E5        30.14S
LEXINGTON      SUNNY     85  68  56 VRB3      30.14S
FRANKFORT      SUNNY     85  70  60 VRB3      30.12S
$$

KYZ091>093-OHZ055-061-077-WVZ005-015-034-035-042-271700
...SOUTHERN OHIO/WEST VIRGINIA...

CITY           SKY/WX    TMP DP  RH WIND       PRES   REMARKS
COVINGTON      PTSUNNY   86  68  54 NW6       30.12S
COLUMBUS       PTSUNNY   84  68  58 CALM      30.10R
DAYTON         MOSUNNY   82  70  66 N5        30.13S
WILMINGTON     MOSUNNY   85  69  58 CALM      30.12R
HUNTINGTON     SUNNY     80  67  64 SW6       30.12S
CHARLESTON     MOSUNNY   79  64  60 CALM      30.13S
PINEVILLE*     SUNNY     79  64  59 MISG      30.21F
BECKLEY        SUNNY     76  57  51 NE7       30.20S
BLUEFIELD      SUNNY     76  57  51 VRB6      30.22S
$$

VAZ002-007-008-TNZ017-027-036-066-071-271700
...SOUTHWEST VIRGINIA/EAST TENNESSEE...

CITY           SKY/WX    TMP DP  RH WIND       PRES   REMARKS
WISE*          SUNNY     75  55  50 N6        30.23S
JONESVILLE*      N/A     81  64  57 NW3       30.17F
ABINGDON*      SUNNY     77  57  49 CALM      30.18F
BRISTOL        SUNNY     77  57  50 CALM      30.17F
KNOXVILLE      MOSUNNY   80  66  62 CALM      30.13F
OAK RIDGE      SUNNY     80  66  62 CALM      30.15F
CROSSVILLE     MOSUNNY   79  65  62 CALM      30.18S
NASHVILLE      PTSUNNY   85  71  63 N6        30.12S HX  90
$$

...KEY TO REMARKS...
VSB - VISIBILITY IN MILES
WCI - WIND CHILL INDEX
HX  - HEAT INDEX

$$



USA.gov is the U.S. government's official web portal to all federal, state and local government web resources and services.